FW4825 Weather Reports


time (UTC)temp
C
wind
direction
speed
KPH
gust
KPH
rain 1hr
cm
rain 24hr
cm
rain mn
cm
humidity
%
barometer
mb
20260504081537 15 180 1.6 3.2 0.00 0.00 0.00 77 1008.2
20260504080517 15 0.0 3.2 0.00 0.00 0.00 76 1008.0
20260504050516 15 0.0 0.0 0.00 0.00 0.00 74 1009.1
20260504045516 16 0.0 0.0 0.00 0.00 0.00 74 1009.1
20260504044515 16 0.0 1.6 0.00 0.00 0.00 74 1009.3
20260504043515 16 0.0 0.0 0.00 0.00 0.00 75 1009.9
20260504042515 16 0.0 0.0 0.00 0.00 0.00 75 1010.2
20260504041515 16 0.0 3.2 0.00 0.00 0.00 76 1010.2
20260504040515 16 0.0 1.6 0.00 0.00 0.00 74 1010.3
20260504035515 16 0.0 1.6 0.00 0.00 0.00 74 1010.2
20260504034515 16 225 1.6 1.6 0.00 0.00 0.00 74 1010.5
20260504033555 16 0.0 3.2 0.00 0.00 0.00 73 1010.5
20260504032515 16 0.0 0.0 0.00 0.00 0.00 72 1010.4
20260504031515 17 225 1.6 4.8 0.00 0.00 0.00 71 1010.4
20260504030515 17 0.0 3.2 0.00 0.00 0.00 70 1010.8
20260504025515 17 0.0 1.6 0.00 0.00 0.00 69 1010.7
20260504024515 17 0.0 1.6 0.00 0.00 0.00 68 1010.8
20260504023535 17 0.0 1.6 0.00 0.00 0.00 67 1010.4
20260504022537 17 248 1.6 3.2 0.00 0.00 0.00 67 1010.3
20260504021537 18 0.0 1.6 0.00 0.00 0.00 66 1010.5
20260504020517 18 0.0 0.0 0.00 0.00 0.00 65 1010.4
20260504015517 18 0.0 0.0 0.00 0.00 0.00 64 1010.4
20260504014517 19 0.0 0.0 0.00 0.00 0.00 63 1010.3
20260504013517 19 0.0 1.6 0.00 0.00 0.00 62 1010.1
20260504012517 20 0.0 0.0 0.00 0.00 0.00 61 1010.0
20260504011517 20 0.0 3.2 0.00 0.00 0.00 60 1010.1
20260504010517 20 0.0 1.6 0.00 0.00 0.00 60 1009.8
20260504005517 20 0.0 0.0 0.00 0.00 0.00 57 1009.8
20260504004517 21 0.0 0.0 0.00 0.00 0.00 56 1010.0
20260504003517 21 0.0 1.6 0.00 0.00 0.00 55 1010.0
20260504002517 21 248 1.6 3.2 0.00 0.00 0.00 54 1009.7
20260504001517 21 248 1.6 3.2 0.00 0.00 0.00 54 1009.5
20260504000517 21 180 1.6 4.8 0.00 0.00 0.00 54 1009.6
20260503235517 21 203 1.6 3.2 0.00 0.00 0.00 53 1009.9
20260503234517 21 203 1.6 4.8 0.00 0.00 0.00 52 1010.0
20260503233517 21 203 1.6 4.8 0.00 0.00 0.00 52 1010.2
20260503232517 22 180 1.6 4.8 0.00 0.00 0.00 50 1009.9
20260503231517 22 203 3.2 12.9 0.00 0.00 0.00 49 1010.1
20260503230517 22 270 3.2 9.7 0.00 0.00 0.00 49 1010.0
20260503225537 22 180 3.2 14.5 0.00 0.00 0.00 47 1009.6
20260503224517 22 180 4.8 14.5 0.00 0.00 0.00 47 1009.5
20260503223516 22 180 4.8 16.1 0.00 0.00 0.00 47 1009.9
20260503222556 22 180 4.8 11.3 0.00 0.00 0.00 47 1010.1
20260503221517 22 225 4.8 9.7 0.00 0.00 0.00 46 1010.2
20260503220517 22 180 6.4 16.1 0.00 0.00 0.00 45 1009.8
20260503215517 22 180 4.8 12.9 0.00 0.00 0.00 46 1009.9
20260503214517 22 180 4.8 16.1 0.00 0.00 0.00 45 1010.3
20260503213516 22 248 8.0 20.9 0.00 0.00 0.00 44 1010.4
20260503212516 22 203 9.7 22.5 0.00 0.00 0.00 43 1010.3
20260503211516 22 180 4.8 12.9 0.00 0.00 0.00 48 1010.8
20260503210516 22 225 6.4 16.1 0.00 0.00 0.00 43 1011.2
20260503205516 22 180 8.0 20.9 0.00 0.00 0.00 44 1011.3
20260503204516 21 158 4.8 19.3 0.00 0.00 0.00 45 1011.1
20260503203516 21 180 6.4 19.3 0.00 0.00 0.00 48 1011.5
20260503202556 20 203 6.4 19.3 0.00 0.00 0.00 46 1011.6
20260503201516 20 225 6.4 25.7 0.00 0.00 0.00 45 1011.9
20260503200516 20 180 8.0 20.9 0.00 0.00 0.00 45 1011.9
20260503195536 20 248 6.4 19.3 0.00 0.00 0.00 47 1011.9
20260503194516 20 180 9.7 29.0 0.00 0.00 0.00 44 1012.0
20260503193517 20 203 6.4 17.7 0.00 0.00 0.00 47 1012.3
20260503192536 20 203 8.0 24.1 0.00 0.00 0.00 46 1012.1
20260503191536 20 180 11.3 27.4 0.00 0.00 0.00 45 1012.4
20260503190516 20 180 8.0 22.5 0.00 0.00 0.00 45 1012.7
20260503185536 20 180 8.0 22.5 0.00 0.00 0.00 49 1012.6
20260503184516 20 180 12.9 24.1 0.00 0.00 0.00 47 1012.5
20260503183516 20 180 9.7 19.3 0.00 0.00 0.00 46 1012.9
20260503182516 19 180 11.3 32.2 0.00 0.00 0.00 49 1013.0
20260503181516 18 180 9.7 25.7 0.00 0.00 0.00 49 1013.6
20260503180516 19 180 8.0 22.5 0.00 0.00 0.00 48 1013.7
20260503175516 19 180 9.7 24.1 0.00 0.00 0.00 48 1014.3
20260503174516 19 180 14.5 33.8 0.00 0.00 0.00 48 1014.0
20260503173516 18 180 9.7 16.1 0.00 0.00 0.00 47 1014.1
20260503172516 18 180 12.9 37.0 0.00 0.00 0.00 48 1014.7
20260503171516 18 180 12.9 37.0 0.00 0.00 0.00 51 1015.1
20260503170516 18 203 9.7 32.2 0.00 0.00 0.00 51 1015.5
20260503150516 15 180 6.4 16.1 0.00 0.00 0.00 59 1017.8
20260503130515 9 180 6.4 16.1 0.00 0.00 0.00 73 1018.5
20260503110515 7 180 4.8 16.1 0.00 0.00 0.00 75 1018.1